Latest Coastal Weather Observations for Truscott

IDD60701

Issued at 12:25 pm CST Monday 21 April 2014 (issued every 10 minutes, with the page automatically refreshed every 10 minutes)

About coastal observations | Map of coastal stations | Coastal observations for NT | Marine services | Other Formats
Station Details ID: 001020 Name: TRUSCOTT Lat: -14.09 Lon: 126.39 Height: 51.0 m
Data from the previous 72 hours. | See also: Recent months at Truscott
Date/Time
CST
Temp

°C
Wind Pressure Rain
since 9am
mm
Weather Cloud Vis
km
Sea
Height
m
Swell
Dir
 
Speed
knots
Gust
knots
hPa Trend Height
m
Period
s
Dir
21/12:00pm 32.3 ESE 8 13 1010.7 - 0.0 - - 10 - - - -
21/11:30am 31.5 ESE 8 13 1011.0 - 0.0 - - 10 - - - -
21/11:00am 31.6 SE 6 11 1011.2 - 0.0 - - 10 - - - -
21/10:30am 30.6 SSE 7 12 1010.9 - 0.0 - - 10 - - - -
21/10:00am 30.3 SSE 6 9 1011.3 - 0.0 - - 10 - - - -
21/09:30am 28.8 SSE 5 7 1011.2 - 0.0 - - 10 - - - -
21/09:00am 27.5 S 5 7 1011.2 - 0.0 - - 10 - - - -
21/08:30am 26.5 SSW 6 8 1011.1 - 0.0 - - 10 - - - -
21/08:00am 25.4 S 4 5 1010.9 - 0.0 - - 10 - - - -
21/07:30am 24.3 S 5 5 1009.9 - 0.0 - - 10 - - - -
21/07:00am 24.2 S 4 5 1010.3 - 0.0 - Partly cloudy 10 - - - -
21/06:30am 23.7 S 4 5 1010.0 - 0.0 - Partly cloudy 10 - - - -
21/06:00am 24.0 S 5 6 1009.6 - 0.0 - - 10 - - - -
21/05:30am 24.1 SSW 4 5 1009.5 - 0.0 - - 10 - - - -
21/05:00am 23.6 WSW 4 4 1009.5 - 0.0 - - 10 - - - -
21/04:30am 24.1 SW 3 4 1009.0 - 0.0 - - 9 - - - -
21/04:00am 24.1 SSE 4 5 1009.6 - 0.0 - - 10 - - - -
21/03:30am 24.3 SE 4 5 1009.6 - 0.0 - - 10 - - - -
21/03:00am 24.4 SE 4 5 1009.6 - 0.0 - - 10 - - - -
21/02:30am 24.5 SE 4 5 1009.8 - 0.0 - - 10 - - - -
21/02:00am 24.6 SE 4 5 1010.0 - 0.0 - - 10 - - - -
21/01:30am 24.9 ESE 4 4 1009.6 - 0.0 - - 10 - - - -
21/01:00am 25.6 E 4 5 1010.5 - 0.0 - - 10 - - - -
21/12:30am 25.8 E 4 5 1010.6 - 0.0 - - 10 - - - -
21/12:00am 26.5 E 5 6 1010.7 - 0.0 - Partly cloudy 10 - - - -
 
Date/Time
CST
Temp

°C
Wind Pressure Rain
since 9am
mm
Weather Cloud Vis
km
Sea
Height
m
Swell
Dir
 
Speed
knots
Gust
knots
hPa Trend Height
m
Period
s
Dir
20/11:30pm 26.9 ENE 5 7 1010.7 - 0.0 - Partly cloudy 10 - - - -
20/11:00pm 27.4 ENE 5 8 1010.9 - 0.0 - Partly cloudy 10 - - - -
20/10:30pm 27.5 ENE 5 8 1010.5 - 0.0 - Partly cloudy 10 - - - -
20/10:00pm 27.3 ENE 5 7 1011.0 - 0.0 - - 10 - - - -
20/09:30pm 27.6 ENE 5 7 1010.8 - 0.0 - - 10 - - - -
20/09:00pm 27.9 ENE 5 7 1010.6 - 0.0 - - 10 - - - -
20/08:30pm 28.1 ENE 5 8 1010.2 - 0.0 - - 10 - - - -
20/08:00pm 28.5 NE 6 8 1009.7 - 0.0 - - 10 - - - -
20/07:30pm 28.8 NE 6 10 1008.9 - 0.0 - - 10 - - - -
20/07:00pm 29.4 NE 6 10 1009.1 - 0.0 - - 10 - - - -
20/06:30pm 30.2 NE 7 13 1008.8 - 0.0 - - 10 - - - -
20/06:00pm 31.0 NE 7 11 1008.5 - 0.0 - - 10 - - - -
20/05:30pm 31.7 NE 9 13 1008.1 - 0.0 - - 10 - - - -
20/05:00pm 32.3 ENE 8 12 1007.9 - 0.0 - - 10 - - - -
20/04:30pm 32.3 NE 9 13 1007.3 - 0.0 - Mostly clear 10 - - - -
20/04:00pm 32.1 ENE 8 14 1007.8 - 0.0 - Partly cloudy 10 - - - -
20/03:30pm 32.6 ENE 9 13 1007.8 - 0.0 - Partly cloudy 10 - - - -
20/03:00pm 33.1 NE 8 14 1008.0 - 0.0 - - 10 - - - -
20/02:30pm 33.0 E 7 11 1008.3 - 0.0 - - 10 - - - -
20/02:00pm 32.5 E 9 13 1008.6 - 0.0 - - 10 - - - -
20/01:30pm 32.4 E 7 11 1008.6 - 0.0 - - 10 - - - -
20/01:00pm 32.0 E 9 15 1009.7 - 0.0 - - 10 - - - -
20/12:30pm 31.3 E 9 14 1010.4 - 0.0 - - 10 - - - -
20/12:00pm 30.7 E 10 16 1010.7 - 0.0 - - 10 - - - -
20/11:30am 30.4 E 11 17 1011.0 - 0.0 - - 10 - - - -
20/11:00am 30.4 E 9 16 1011.2 - 0.0 - - 10 - - - -
20/10:30am 30.0 E 10 15 1010.9 - 0.0 - - 10 - - - -
20/10:00am 29.0 ESE 9 14 1011.3 - 0.0 - - 10 - - - -
20/09:30am 28.9 ESE 8 11 1011.1 - 0.0 - - 10 - - - -
20/09:00am 28.4 ESE 7 11 1011.0 - 0.0 - - 10 - - - -
20/08:30am 27.5 ESE 7 11 1010.7 - 0.0 - - 10 - - - -
20/08:00am 26.6 SE 6 9 1010.4 - 0.0 - - 10 - - - -
20/07:30am 25.7 SE 6 8 1009.6 - 0.0 - - 10 - - - -
20/07:00am 25.4 SE 5 7 1009.8 - 0.0 - - 10 - - - -
20/06:30am 25.8 SE 5 8 1009.4 - 0.0 - - 10 - - - -
20/06:00am 26.2 SE 5 7 1009.2 - 0.0 - - 10 - - - -
20/05:30am 25.8 SE 5 6 1009.1 - 0.0 - - 10 - - - -
20/05:00am 26.4 SSE 5 7 1008.9 - 0.0 - - 10 - - - -
20/04:30am 25.7 SSE 5 6 1008.4 - 0.0 - - 10 - - - -
20/04:00am 25.6 SSE 5 6 1009.0 - 0.0 - - 10 - - - -
20/03:51am 25.4 SSE 5 6 1009.1 - 0.0 - - 10 - - - -
20/03:39am 25.4 SE 4 5 1009.1 - 0.0 - - 5 - - - -
20/03:30am 25.5 SE 4 6 1009.2 - 0.0 - - 10 - - - -
20/03:00am 25.3 SE 4 6 1009.3 - 0.0 - - 10 - - - -
20/02:30am 25.0 SE 4 5 1009.5 - 0.0 - - 10 - - - -
20/02:00am 24.8 SSE 4 5 1009.9 - 0.0 - - 10 - - - -
20/01:30am 24.7 SSE 3 4 1009.8 - 0.0 - - 10 - - - -
20/01:00am 25.1 SSE 4 5 1010.4 - 0.0 - - 10 - - - -
20/12:30am 25.0 SE 3 4 1010.7 - 0.0 - - 10 - - - -
20/12:00am 25.1 SE 3 4 1010.8 - 0.0 - - 10 - - - -
 
Date/Time
CST
Temp

°C
Wind Pressure Rain
since 9am
mm
Weather Cloud Vis
km
Sea
Height
m
Swell
Dir
 
Speed
knots
Gust
knots
hPa Trend Height
m
Period
s
Dir
19/11:30pm 26.1 SE 3 5 1010.9 - 0.0 - - 10 - - - -
19/11:00pm 26.6 ESE 3 5 1010.9 - 0.0 - - 10 - - - -
19/10:30pm 26.7 ESE 4 5 - - 0.0 - - - - - - -
19/10:00pm 26.5 E 4 5 - - 0.0 - - - - - - -
19/09:30pm 26.3 E 3 4 - - 0.0 - - - - - - -
19/09:00pm 27.2 ENE 3 4 1010.3 - 0.0 - - 10 - - - -
19/08:30pm 27.9 NE 4 6 1010.0 - 0.0 - - 10 - - - -
19/08:00pm 27.4 NE 3 5 1009.7 - 0.0 - - 10 - - - -
19/07:30pm 28.9 NE 3 5 1008.9 - 0.0 - - 10 - - - -
19/07:00pm 30.0 ENE 4 7 1009.2 - 0.0 - - 10 - - - -
19/06:30pm 31.1 ENE 6 10 1008.8 - 0.0 - - 10 - - - -
19/06:00pm 31.8 E 9 14 1008.7 - 0.0 - - 10 - - - -
19/05:30pm 32.2 E 9 14 1008.4 - 0.0 - - 10 - - - -
19/05:00pm 32.4 ENE 8 13 1008.1 - 0.0 - - 10 - - - -
19/04:30pm 32.6 ENE 10 16 1007.2 - 0.0 - - 10 - - - -
19/04:00pm 33.4 ENE 9 16 1007.7 - 0.0 - - 10 - - - -
19/03:30pm 33.6 ENE 8 13 1007.8 - 0.0 - Partly cloudy 10 - - - -
19/03:00pm 33.5 ENE 10 14 1008.0 - 0.0 - Partly cloudy 7 - - - -
19/02:30pm 33.1 E 9 14 1008.3 - 0.0 - Partly cloudy 10 - - - -
19/02:00pm 33.1 E 10 15 1008.8 - 0.0 - Partly cloudy 10 - - - -
19/01:30pm 32.8 E 8 15 1008.7 - 0.0 - - 10 - - - -
19/01:00pm 32.2 E 8 12 1009.5 - 0.0 - - 10 - - - -
19/12:30pm 31.7 ESE 8 11 1010.0 - 0.0 - Partly cloudy 10 - - - -
19/12:00pm 30.5 ESE 9 15 1010.7 - 0.0 - Partly cloudy 10 - - - -
19/11:30am 30.5 E 9 15 1011.3 - 0.0 - Partly cloudy 10 - - - -
19/11:00am 30.7 ESE 7 11 1011.7 - 0.0 - Cloudy 10 - - - -
19/10:30am 29.6 E 8 14 1011.3 - 0.0 - Mostly cloudy 10 - - - -
19/10:00am 29.4 ESE 8 12 1011.9 - 0.0 - Cloudy 10 - - - -
19/09:30am 28.4 ESE 6 10 1011.8 - 0.0 - Cloudy 10 - - - -
19/09:00am 27.4 SE 5 9 - - 0.0 - Cloudy - - - - -
19/08:30am 26.2 ESE 4 6 1011.9 - 0.0 - Partly cloudy 10 - - - -
19/08:00am 26.3 SE 3 5 1011.6 - 0.0 - Partly cloudy 10 - - - -
19/07:30am 26.3 SE 4 6 1010.8 - 0.0 - Mostly cloudy 10 - - - -
19/07:00am 26.2 ESE 4 6 1011.3 - 0.0 - Partly cloudy 10 - - - -
19/06:30am 27.1 ESE 6 9 1010.8 - 0.0 - Partly cloudy 10 - - - -
19/06:00am 26.5 SE 5 7 1010.5 - 0.0 - Partly cloudy 8 - - - -
19/05:30am 25.3 CALM 0 3 1010.6 - 0.0 - Partly cloudy 10 - - - -
19/05:00am 25.9 CALM 0 0 1010.6 - 0.0 - Partly cloudy 10 - - - -
19/04:30am 26.4 SSW 1 3 1010.0 - 0.0 - Partly cloudy 10 - - - -
19/04:00am 26.4 SSW 3 4 1010.3 - 0.0 - Partly cloudy 10 - - - -
19/03:30am 26.7 SSW 3 4 1010.5 - 0.0 - Partly cloudy 10 - - - -
19/03:00am 27.2 S 4 4 1010.6 - 0.0 - Partly cloudy 10 - - - -
19/02:30am 27.5 S 4 5 1010.9 - 0.0 - Cloudy 10 - - - -
19/02:00am 27.6 S 4 5 1011.0 - 0.0 - Partly cloudy 10 - - - -
19/01:30am 27.7 S 5 6 1010.8 - 0.0 - Cloudy 10 - - - -
19/01:00am 27.5 SSE 4 5 1011.5 - 0.0 - Partly cloudy 10 - - - -
19/12:30am 27.4 SSE 4 5 1011.9 - 0.0 - Cloudy 10 - - - -
19/12:00am 26.6 SE 3 4 1012.0 - 0.0 - Partly cloudy 10 - - - -
 
Date/Time
CST
Temp

°C
Wind Pressure Rain
since 9am
mm
Weather Cloud Vis
km
Sea
Height
m
Swell
Dir
 
Speed
knots
Gust
knots
hPa Trend Height
m
Period
s
Dir
18/11:30pm 26.9 E 3 4 1012.2 - 0.0 - Partly cloudy 10 - - - -
18/11:00pm 26.6 ESE 3 4 1012.2 - 0.0 - Partly cloudy 10 - - - -
18/10:30pm 27.0 ESE 3 5 1011.7 - 0.0 - - 10 - - - -
18/10:00pm 27.7 ESE 3 4 1012.1 - 0.0 - Partly cloudy 10 - - - -
18/09:30pm 28.6 E 3 4 1012.0 - 0.0 - Partly cloudy 10 - - - -
18/09:00pm 29.0 E 4 5 1011.6 - 0.0 - - 10 - - - -
18/08:30pm 29.5 E 5 7 1011.2 - 0.0 - - 10 - - - -
18/08:00pm 29.4 E 4 7 1010.8 - 0.0 - - 10 - - - -
18/07:30pm 29.9 E 4 6 1009.8 - 0.0 - - 10 - - - -
18/07:00pm 30.6 E 6 8 1010.0 - 0.0 - - 8 - - - -
18/06:30pm 31.3 E 6 10 1009.8 - 0.0 - - 10 - - - -
18/06:00pm 31.9 E 7 12 1009.5 - 0.0 - - 10 - - - -
18/05:30pm 31.4 E 7 11 1009.3 - 0.0 - Partly cloudy 10 - - - -
18/05:00pm 32.0 E 7 11 1009.1 - 0.0 - Partly cloudy 10 - - - -
18/04:30pm 32.5 ENE 6 10 1008.5 - 0.0 - Partly cloudy 10 - - - -
18/04:00pm 32.3 ENE 5 8 1009.1 - 0.0 - Partly cloudy 10 - - - -
18/03:30pm 32.9 E 7 11 1009.0 - 0.0 - Partly cloudy 10 - - - -
18/03:00pm 32.8 E 7 11 1009.1 - 0.0 - Partly cloudy 10 - - - -
18/02:30pm 32.4 E 8 13 1009.6 - 0.0 - Partly cloudy 10 - - - -
18/02:00pm 33.1 E 10 14 1009.8 - 0.0 - - 10 - - - -

Other Formats:

Comma delimited format used in spreadsheet applications
http://www.bom.gov.au/fwo/IDD60701/IDD60701.95101.axf

JavaScript Object Notation format (JSON) in row-major order
http://www.bom.gov.au/fwo/IDD60701/IDD60701.95101.json